TimeCET,TemperatureF,Dew PointF,Humidity,Sea Level PressureIn,VisibilityMPH,Wind Direction,Wind SpeedMPH,Gust SpeedMPH,PrecipitationIn,Events,Conditions,WindDirDegrees,DateUTC
12:00 AM,39.2,35.6,87,30.01,6.2,WNW,5.8,-,N/A,,Mostly Cloudy,300,2013-11-10 23:00:00
12:30 AM,39.2,35.6,87,30.01,6.2,NW,5.8,-,N/A,,Mostly Cloudy,310,2013-11-10 23:30:00
1:00 AM,39,36,83,30.08,16,NW,6.7,,,,Partly Cloudy,310,2013-11-11 00:00:00
1:00 AM,39.2,35.6,87,30.04,6.2,NW,5.8,-,N/A,,Mostly Cloudy,310,2013-11-11 00:00:00
1:30 AM,39.2,35.6,87,30.06,6.2,WNW,5.8,-,N/A,,Mostly Cloudy,300,2013-11-11 00:30:00
2:00 AM,39.2,35.6,87,30.06,6.2,West,5.8,-,N/A,,Mostly Cloudy,280,2013-11-11 01:00:00
2:30 AM,39.2,35.6,87,30.09,6.2,WNW,6.9,-,N/A,,Mostly Cloudy,290,2013-11-11 01:30:00
3:00 AM,39.2,35.6,87,30.09,6.2,WNW,8.1,-,N/A,,Mostly Cloudy,290,2013-11-11 02:00:00
3:30 AM,39.2,35.6,87,30.12,6.2,WNW,6.9,-,N/A,,Mostly Cloudy,290,2013-11-11 02:30:00
4:00 AM,39.2,33.8,81,30.12,6.2,West,5.8,-,N/A,,Mostly Cloudy,280,2013-11-11 03:00:00
4:30 AM,37.4,33.8,87,30.12,6.2,West,5.8,-,N/A,,Mostly Cloudy,280,2013-11-11 03:30:00
5:00 AM,37.4,33.8,87,30.15,6.2,WNW,6.9,-,N/A,,Mostly Cloudy,290,2013-11-11 04:00:00
5:30 AM,37.4,33.8,87,30.15,6.2,WNW,6.9,-,N/A,,Mostly Cloudy,290,2013-11-11 04:30:00
5:35 AM,37.4,35.6,93,30.15,6.2,West,8.1,-,N/A,Rain,Light Rain,280,2013-11-11 04:35:00
6:00 AM,39.2,35.6,87,30.18,6.2,West,6.9,-,N/A,,Mostly Cloudy,270,2013-11-11 05:00:00
6:30 AM,37.4,35.6,93,30.21,6.2,West,4.6,-,N/A,,Mostly Cloudy,260,2013-11-11 05:30:00
7:00 AM,38,36,88,30.28,12,West,6.7,,,Rain,Light Rain,260,2013-11-11 06:00:00
7:00 AM,37.4,35.6,93,30.21,6.2,West,6.9,-,N/A,,Mostly Cloudy,260,2013-11-11 06:00:00
7:30 AM,39.2,35.6,87,30.24,6.2,West,8.1,-,N/A,,Mostly Cloudy,260,2013-11-11 06:30:00
8:00 AM,39.2,35.6,87,30.24,6.2,West,6.9,-,N/A,,Mostly Cloudy,260,2013-11-11 07:00:00
8:30 AM,39.2,35.6,87,30.27,6.2,West,6.9,-,N/A,,Mostly Cloudy,260,2013-11-11 07:30:00
9:00 AM,39.2,35.6,87,30.27,6.2,West,8.1,-,N/A,,Scattered Clouds,270,2013-11-11 08:00:00
9:30 AM,41.0,35.6,81,30.27,6.2,WNW,9.2,-,N/A,,Mostly Cloudy,290,2013-11-11 08:30:00
10:00 AM,41.0,35.6,81,30.30,6.2,WNW,9.2,-,N/A,,Mostly Cloudy,300,2013-11-11 09:00:00
10:30 AM,41.0,35.6,81,30.30,6.2,NW,9.2,-,N/A,,Mostly Cloudy,310,2013-11-11 09:30:00
11:00 AM,41.0,35.6,81,30.33,6.2,NW,9.2,-,N/A,,Mostly Cloudy,320,2013-11-11 10:00:00
11:30 AM,42.8,37.4,81,30.33,6.2,NW,8.1,-,N/A,,Scattered Clouds,320,2013-11-11 10:30:00
12:00 PM,41.0,33.8,76,30.33,6.2,North,6.9,-,N/A,,Mostly Cloudy,350,2013-11-11 11:00:00
12:30 PM,41.0,35.6,81,30.36,6.2,NNE,6.9,-,N/A,,Mostly Cloudy,20,2013-11-11 11:30:00
1:00 PM,41,36,77,30.40,25,NNW,6.7,,,,Partly Cloudy,340,2013-11-11 12:00:00
1:00 PM,41.0,37.4,87,30.36,6.2,NNW,5.8,-,N/A,,Mostly Cloudy,330,2013-11-11 12:00:00
1:12 PM,41.0,37.4,87,30.36,6.2,North,5.8,-,N/A,Rain,Light Rain,350,2013-11-11 12:12:00
1:30 PM,42.8,35.6,76,30.36,6.2,NNW,6.9,-,N/A,,Mostly Cloudy,340,2013-11-11 12:30:00
2:00 PM,41.0,35.6,81,30.36,6.2,NW,6.9,-,N/A,,Mostly Cloudy,320,2013-11-11 13:00:00
2:30 PM,41.0,35.6,81,30.39,6.2,NW,5.8,-,N/A,,Mostly Cloudy,320,2013-11-11 13:30:00
3:00 PM,41.0,35.6,81,30.39,6.2,NW,6.9,-,N/A,,Mostly Cloudy,320,2013-11-11 14:00:00
3:30 PM,41.0,35.6,81,30.39,6.2,NW,4.6,-,N/A,,Mostly Cloudy,320,2013-11-11 14:30:00
4:00 PM,41.0,35.6,81,30.39,6.2,NNW,3.5,-,N/A,,Mostly Cloudy,340,2013-11-11 15:00:00
4:30 PM,41.0,35.6,81,30.42,6.2,NNW,3.5,-,N/A,,Mostly Cloudy,340,2013-11-11 15:30:00
5:00 PM,41.0,37.4,87,30.42,6.2,NW,3.5,-,N/A,,Mostly Cloudy,320,2013-11-11 16:00:00
5:30 PM,41.0,37.4,87,30.42,6.2,NW,4.6,-,N/A,,Mostly Cloudy,310,2013-11-11 16:30:00
6:00 PM,41.0,37.4,87,30.42,6.2,NW,4.6,-,N/A,,Mostly Cloudy,320,2013-11-11 17:00:00
6:30 PM,39.2,35.6,87,30.42,6.2,Variable,2.3,-,N/A,,Mostly Cloudy,0,2013-11-11 17:30:00
7:00 PM,40,36,78,30.50,12,NNW,4.5,,,,Partly Cloudy,330,2013-11-11 18:00:00
7:00 PM,39.2,35.6,87,30.45,6.2,WNW,2.3,-,N/A,,Overcast,290,2013-11-11 18:00:00
7:30 PM,39.2,35.6,87,30.45,6.2,WNW,3.5,-,N/A,,Mostly Cloudy,300,2013-11-11 18:30:00
8:00 PM,39.2,35.6,87,30.45,6.2,Variable,1.2,-,N/A,,Mostly Cloudy,0,2013-11-11 19:00:00
8:30 PM,39.2,35.6,87,30.48,6.2,Variable,2.3,-,N/A,,Mostly Cloudy,0,2013-11-11 19:30:00
9:00 PM,39.2,35.6,87,30.48,6.2,Variable,2.3,-,N/A,,Mostly Cloudy,0,2013-11-11 20:00:00
9:30 PM,39.2,35.6,87,30.48,6.2,NW,3.5,-,N/A,,Overcast,320,2013-11-11 20:30:00
10:00 PM,41.0,32.0,70,30.48,6.2,Variable,2.3,-,N/A,,Overcast,0,2013-11-11 21:00:00
10:07 PM,41.0,32.0,70,30.48,6.2,Variable,2.3,-,N/A,,Overcast,0,2013-11-11 21:07:00
10:30 PM,39.2,33.8,81,30.48,6.2,Variable,1.2,-,N/A,,Overcast,0,2013-11-11 21:30:00
11:00 PM,41.0,32.0,70,30.45,6.2,Variable,2.3,-,N/A,,Overcast,0,2013-11-11 22:00:00
11:30 PM,39.2,33.8,81,30.45,6.2,NNW,3.5,-,N/A,,Overcast,330,2013-11-11 22:30:00